Location: Flayat
(45.7743°N, 2.3814°E)
Time: 00:31:59
(UTC+00:00)

Daily predictions for brighter satellites

Satellite Brightness Start Highest point End
(mag) Time Altitude Azimuth Time Altitude Azimuth Time Altitude Azimuth
COSMOS 2406 3.9 03:52:21 50° ESE 03:52:21 50° ESE 03:56:47 10° SE
Cosmos 2082 Rocket 3.3 03:52:50 38° NE 03:53:30 39° NE 03:58:44 10° SE
COSMOS 2455 3.2 03:57:05 59° ESE 03:57:05 59° ESE 04:02:00 10° SE
Cosmos 2278 Rocket 2.2 04:13:39 76° ENE 04:13:39 76° ENE 04:19:02 10° NNE
USA 215 3.1 04:10:19 10° SE 04:16:52 88° NE 04:17:50 68° NW
CZ-2C R/B 3.9 04:15:13 10° SE 04:20:21 40° ENE 04:25:24 10° N
BREEZE M DEB (TANK) 3.6 04:21:18 65° ENE 04:21:18 65° ENE 04:23:53 10° ENE
Cosmos 1072 Rocket 4.4 04:18:58 18° N 04:23:45 84° E 04:29:51 10° S
Cosmos 540 Rocket 3.6 04:25:26 60° NNE 04:26:08 68° ENE 04:31:15 10° SSE
Cosmos 2221 3.7 04:32:04 35° SSE 04:32:04 35° SSE 04:34:38 10° S
Cosmos 1833 Rocket 3.3 04:34:00 42° SSW 04:34:00 42° SSW 04:37:56 10° S
Cosmos 1741 Rocket 4.2 04:30:04 20° S 04:33:38 69° ESE 04:38:49 10° NNE
SL-8 R/B 3.7 04:35:05 80° ENE 04:35:05 80° ENE 04:39:38 10° ENE
Meteor 1-31 Rocket 4.5 04:35:12 10° NNE 04:38:45 33° E 04:42:16 10° SSE
Cosmos 2151 4.5 04:37:48 10° SSE 04:41:43 36° E 04:45:41 10° NNE
Cosmos 841 Rocket 3.4 04:48:36 36° NNW 04:50:44 85° ENE 04:55:54 10° SSE
Cosmos 1763 Rocket 4.2 04:52:50 36° SW 04:52:50 36° SW 04:56:27 10° S
H-2A R/B 4.4 04:53:39 10° ESE 04:56:47 21° ENE 04:59:58 10° NNE
SJ-12 4.0 04:54:13 10° NNE 04:58:22 80° ESE 05:02:30 10° S
Envisat 3.1 04:54:12 10° NNE 04:59:19 78° ESE 05:04:23 10° S
SL-19 R/B 4.2 04:54:02 10° S 04:59:42 67° WSW 05:03:25 22° NNW
Cosmos 1570 Rocket 4.4 05:01:27 14° NNW 05:05:54 63° ENE 05:11:05 10° SSE
Cosmos 1076 Rocket 3.4 05:02:18 10° SSW 05:06:40 77° W 05:11:04 10° N
YAOGAN 6 2.4 05:03:49 10° N 05:07:30 73° WNW 05:11:10 10° SSW
CBERS 1 LM4 rocket 4.4 05:06:25 10° NNE 05:11:14 84° ESE 05:16:08 10° SSW
COSMO-SKYMED 1 2.4 05:07:19 10° S 05:11:39 75° WSW 05:14:38 20° NNW
Aureole 1 Rocket 4.3 05:10:09 10° SSE 05:12:57 29° ESE 05:15:36 10° NE
Cosmos 1867 4.1 05:10:50 19° NNW 05:14:45 56° NE 05:20:06 10° SE
Cosmos 2084 Rocket 3.6 05:13:27 10° SSW 05:17:15 61° SE 05:21:05 10° NE
APEX 3.8 05:16:51 27° NNE 05:17:45 36° ENE 05:20:29 10° SE
Cosmos 1464 Rocket 4.3 05:12:06 10° NNW 05:18:01 43° W 05:23:51 10° SSW
NOSS 3-2 (A) 3.4 05:12:42 10° SSW 05:18:13 77° SE 05:24:36 10° NE
H-2A R/B 2.6 05:16:52 10° N 05:20:28 56° WNW 05:24:06 10° SSW
FALCON 9 DEB 4.4 05:19:05 18° SSW 05:20:38 32° SE 05:23:14 10° ENE
NOSS 3-2 (C) 4.3 05:16:35 10° S 05:21:49 47° ESE 05:27:46 10° NE
CENTAUR R/B 2.8 05:19:11 10° SSW 05:24:54 69° ESE 05:31:50 10° NE
Cosmos 968 Rocket 4.4 05:21:19 10° S 05:26:17 49° ESE 05:31:15 10° NNE
Cosmos 1151 Rocket 4.3 05:22:24 10° N 05:26:34 41° ENE 05:30:44 10° SSE
Gbstr 26 Del rocket 2.7 05:28:19 34° WNW 05:29:56 83° NNE 05:34:16 10° ESE
Cosmos 2208 Rocket 4.2 05:24:41 10° NNW 05:30:12 81° ENE 05:35:36 10° SSE
CZ-4B R/B 4.0 05:27:12 10° NNE 05:30:40 41° E 05:34:02 10° S
Meteor 2-3 Rocket 3.6 05:25:05 10° SSW 05:30:42 81° W 05:36:27 10° N
Landsat 5 3.7 05:27:44 10° S 05:32:10 58° W 05:36:38 10° NNW
Cosmos 1814 Rocket 3.9 05:28:34 14° NNW 05:32:56 68° WSW 05:38:00 10° S
COSMOS 2406 4.3 05:34:29 22° W 05:35:02 23° W 05:39:19 10° SSW
Cosmos 2082 Rocket 2.8 05:34:44 22° WNW 05:37:30 35° WSW 05:42:33 10° S
Meteor 1-26 Rocket 4.3 05:32:52 10° NNW 05:38:54 77° W 05:44:45 10° S
NOSS 8 (A) 4.0 05:35:31 10° SW 05:39:00 79° NW 05:41:56 10° NE
CZ-4B R/B 3.7 05:38:24 10° ESE 05:41:09 24° ENE 05:43:53 10° NNE
COSMOS 2455 4.1 05:40:17 19° W 05:41:15 20° WSW 05:45:28 10° SSW
Cosmos 2297 3.7 05:35:33 10° SSW 05:41:18 88° WNW 05:47:05 10° NNE
Meteor PRIRODA 4.0 05:37:54 10° NNE 05:41:30 65° ESE 05:45:05 10° S
Kosmos-917 4.3 05:43:21 25° W 05:44:36 39° NW 05:49:03 10° NE
USA 238 DEB 3.7 05:43:28 10° SSW 05:49:56 82° SE 05:56:48 10° NE
USA 238 3.7 05:43:34 10° SSW 05:50:02 82° SE 05:56:54 10° NE
OE (NEXTSAT) 4.3 05:49:10 24° W 05:51:07 80° SSW 05:54:33 10° ESE
Cosmos 1782 2.9 05:49:38 10° NNW 05:53:30 53° W 05:57:20 10° S
NOAA 11 4.1 05:50:19 10° N 05:55:47 76° WNW 06:01:15 10° SSW
Cosmos 1862 3.8 05:52:27 10° S 05:56:21 62° E 06:00:16 10° NNE
CZ-2C R/B 2.9 05:52:42 10° NNE 05:57:29 88° E 06:02:25 10° SSW
SWAS 4.4 05:53:40 10° SSW 05:57:58 84° WNW 06:02:19 10° NNE
Cosmos 2278 Rocket 3.4 05:55:34 16° W 05:58:06 21° NW 06:02:21 10° N
USA 215 4.2 05:54:52 10° S 06:00:23 29° SW 06:05:12 13° WNW
CZ-2C R/B 3.4 05:55:46 10° SSW 06:00:41 32° W 06:05:33 10° NNW
Cosmos 1943 Rocket 2.2 05:55:47 10° SW 06:01:24 64° WNW 06:07:03 10° NNE
Okean 3 Rocket 3.9 06:00:08 10° S 06:04:38 75° E 06:09:11 10° NNE
Cosmos 1933 4.4 06:03:45 10° NW 06:07:03 25° W 06:10:18 10° SW
IRAS Rocket 4.4 06:02:19 10° S 06:07:43 53° WSW 06:13:07 10° NNW
Cosmos 2344 3.8 06:00:53 10° WSW 06:07:59 48° NW 06:15:44 10° NE
OPS 8737 4.5 06:05:04 10° SW 06:09:21 77° NW 06:12:36 10° NE
FengYun 1-2 T 4.4 06:05:33 10° NNE 06:11:05 79° ESE 06:16:34 10° S
ADEOS 3.8 06:06:21 10° N 06:11:22 48° WNW 06:16:21 10° SW
Meteor 1-31 Rocket 4.0 06:10:00 10° NNW 06:12:56 21° WNW 06:15:52 10° WSW
Iridium 2 4.1 06:12:22 10° SSW 06:15:57 40° W 06:19:34 10° N
SJ 16-02 4.5 06:13:46 10° SE 06:16:30 16° E 06:19:13 10° ENE
SL-8 R/B 3.9 06:13:04 11° W 06:17:35 62° N 06:22:20 10° E
Cosmos 2151 4.2 06:15:48 10° WSW 06:19:07 21° WNW 06:22:27 10° NNW
Cosmos 2279 Rocket 4.0 06:14:40 10° NNW 06:20:48 66° W 06:26:54 10° S
BREEZE-M DEB (TANK) 4.1 06:09:27 10° SW 06:20:50 54° SSE 06:24:14 10° ENE
Meteor 2-8 Rocket 4.5 06:15:33 10° N 06:21:45 82° W 06:27:51 10° S
AQUARIUS 4.3 06:19:39 10° NNE 06:24:10 82° ESE 06:28:40 10° SSW
Cosmos 1812 3.3 06:22:07 10° NNW 06:25:42 37° W 06:29:16 10° SSW
Nadezhda 4 Rocket 4.3 06:25:54 10° S 06:32:00 75° E 06:38:13 10° NNE
H-2A R/B 2.5 06:28:29 10° S 06:32:27 41° W 06:36:32 10° NNW
Cosmos 1939 Rocket 3.0 06:29:00 10° N 06:32:54 53° WNW 06:36:43 10° SSW
SMAP 3.1 06:31:54 10° N 06:36:32 67° WNW 06:41:09 10° SSW
FALCON 9 R/B 4.3 06:21:56 10° W 06:37:39 37° SSW 06:42:54 10° SE
